Time,TemperatureF,DewpointF,PressureIn,WindDirection,WindDirectionDegrees,WindSpeedMPH,WindSpeedGustMPH,Humidity,HourlyPrecipIn,Conditions,Clouds,dailyrainin,SoftwareType,DateUTC
2013-04-27 00:00:00,38.6,34.2,30.47,NE,40,0.0,1.0,84,0.00,,,0.00,VWS V14.01,2013-04-27 04:00:00,
2013-04-27 00:01:00,38.6,34.2,30.47,NE,40,0.0,1.0,84,0.00,,,0.00,VWS V14.01,2013-04-27 04:01:00,
2013-04-27 00:06:00,38.6,33.9,30.47,NE,40,0.0,0.0,83,0.00,,,0.00,VWS V14.01,2013-04-27 04:06:00,
2013-04-27 00:11:00,38.2,33.5,30.47,NE,40,0.0,0.0,83,0.00,,,0.00,VWS V14.01,2013-04-27 04:11:00,
2013-04-27 00:16:00,37.9,33.8,30.47,NE,40,0.0,0.0,85,0.00,,,0.00,VWS V14.01,2013-04-27 04:16:00,
2013-04-27 00:21:00,37.8,33.7,30.47,NE,40,0.0,0.0,85,0.00,,,0.00,VWS V14.01,2013-04-27 04:21:00,
2013-04-27 00:26:00,37.6,33.5,30.47,NE,40,0.0,0.0,85,0.00,,,0.00,VWS V14.01,2013-04-27 04:26:00,
2013-04-27 00:31:00,37.7,33.9,30.47,NE,40,0.0,0.0,86,0.00,,,0.00,VWS V14.01,2013-04-27 04:31:00,
2013-04-27 00:36:00,37.9,33.8,30.47,NE,40,0.0,0.0,85,0.00,,,0.00,VWS V14.01,2013-04-27 04:36:00,
2013-04-27 00:42:00,37.8,33.7,30.47,NE,40,0.0,0.0,85,0.00,,,0.00,VWS V14.01,2013-04-27 04:42:00,
2013-04-27 00:47:00,37.7,33.6,30.47,NE,40,0.0,0.0,85,0.00,,,0.00,VWS V14.01,2013-04-27 04:47:00,
2013-04-27 00:52:00,37.6,33.5,30.47,NE,40,0.0,0.0,85,0.00,,,0.00,VWS V14.01,2013-04-27 04:52:00,
2013-04-27 00:57:00,37.5,33.7,30.47,NE,40,0.0,0.0,86,0.00,,,0.00,VWS V14.01,2013-04-27 04:57:00,
2013-04-27 01:02:00,37.4,33.6,30.47,NE,40,0.0,0.0,86,0.00,,,0.00,VWS V14.01,2013-04-27 05:02:00,
2013-04-27 01:07:00,37.2,33.4,30.47,NE,40,0.0,0.0,86,0.00,,,0.00,VWS V14.01,2013-04-27 05:07:00,
2013-04-27 01:12:00,37.2,33.7,30.47,NE,40,0.0,0.0,87,0.00,,,0.00,VWS V14.01,2013-04-27 05:12:00,
2013-04-27 01:17:00,37.3,33.8,30.47,NE,40,0.0,0.0,87,0.00,,,0.00,VWS V14.01,2013-04-27 05:17:00,
2013-04-27 01:22:00,37.3,33.8,30.47,NE,40,0.0,0.0,87,0.00,,,0.00,VWS V14.01,2013-04-27 05:22:00,
2013-04-27 01:26:00,37.2,33.7,30.47,NE,40,0.0,0.0,87,0.00,,,0.00,VWS V14.01,2013-04-27 05:26:00,
2013-04-27 01:31:00,37.1,33.6,30.47,NE,40,0.0,0.0,87,0.00,,,0.00,VWS V14.01,2013-04-27 05:31:00,
2013-04-27 01:36:00,37.0,33.5,30.47,NE,40,0.0,0.0,87,0.00,,,0.00,VWS V14.01,2013-04-27 05:36:00,
2013-04-27 01:41:00,36.8,33.3,30.47,NE,40,0.0,0.0,87,0.00,,,0.00,VWS V14.01,2013-04-27 05:41:00,
2013-04-27 01:46:00,36.6,33.1,30.47,NE,40,0.0,0.0,87,0.00,,,0.00,VWS V14.01,2013-04-27 05:46:00,
2013-04-27 01:51:00,36.2,32.7,30.47,NE,40,0.0,0.0,87,0.00,,,0.00,VWS V14.01,2013-04-27 05:51:00,
2013-04-27 01:56:00,35.9,32.7,30.47,NE,40,0.0,0.0,88,0.00,,,0.00,VWS V14.01,2013-04-27 05:56:00,
2013-04-27 02:01:00,35.7,32.8,30.47,NE,40,0.0,0.0,89,0.00,,,0.00,VWS V14.01,2013-04-27 06:01:00,
2013-04-27 02:06:00,35.8,33.2,30.46,NE,40,0.0,0.0,90,0.00,,,0.00,VWS V14.01,2013-04-27 06:06:00,
2013-04-27 02:11:00,36.2,33.6,30.46,NE,40,0.0,0.0,90,0.00,,,0.00,VWS V14.01,2013-04-27 06:11:00,
2013-04-27 02:16:00,36.4,33.8,30.46,NE,40,0.0,0.0,90,0.00,,,0.00,VWS V14.01,2013-04-27 06:16:00,
2013-04-27 02:22:00,36.6,33.7,30.46,NE,40,0.0,0.0,89,0.00,,,0.00,VWS V14.01,2013-04-27 06:22:00,
2013-04-27 02:27:00,36.5,33.3,30.46,NE,40,0.0,0.0,88,0.00,,,0.00,VWS V14.01,2013-04-27 06:27:00,
2013-04-27 02:32:00,36.4,33.2,30.46,NE,40,0.0,0.0,88,0.00,,,0.00,VWS V14.01,2013-04-27 06:32:00,
2013-04-27 02:37:00,36.2,33.0,30.46,NE,40,0.0,0.0,88,0.00,,,0.00,VWS V14.01,2013-04-27 06:37:00,
2013-04-27 02:42:00,36.1,32.9,30.45,NE,40,0.0,0.0,88,0.00,,,0.00,VWS V14.01,2013-04-27 06:42:00,
2013-04-27 02:47:00,36.2,33.3,30.45,NE,40,0.0,0.0,89,0.00,,,0.00,VWS V14.01,2013-04-27 06:47:00,
2013-04-27 02:52:00,36.1,33.2,30.45,NE,40,0.0,0.0,89,0.00,,,0.00,VWS V14.01,2013-04-27 06:52:00,
2013-04-27 02:57:00,35.9,33.0,30.45,NE,40,0.0,0.0,89,0.00,,,0.00,VWS V14.01,2013-04-27 06:57:00,
2013-04-27 03:02:00,35.7,32.5,30.45,NE,40,0.0,0.0,88,0.00,,,0.00,VWS V14.01,2013-04-27 07:02:00,
2013-04-27 03:07:00,35.4,32.2,30.45,NE,40,0.0,0.0,88,0.00,,,0.00,VWS V14.01,2013-04-27 07:07:00,
2013-04-27 03:12:00,35.2,32.3,30.45,NE,40,0.0,0.0,89,0.00,,,0.00,VWS V14.01,2013-04-27 07:12:00,
2013-04-27 03:16:00,35.1,32.5,30.45,NE,40,0.0,0.0,90,0.00,,,0.00,VWS V14.01,2013-04-27 07:16:00,
2013-04-27 03:21:00,35.1,32.5,30.45,NE,40,0.0,0.0,90,0.00,,,0.00,VWS V14.01,2013-04-27 07:21:00,
2013-04-27 03:26:00,35.0,32.4,30.45,NE,40,0.0,0.0,90,0.00,,,0.00,VWS V14.01,2013-04-27 07:26:00,
2013-04-27 03:31:00,34.9,32.3,30.45,NE,40,0.0,0.0,90,0.00,,,0.00,VWS V14.01,2013-04-27 07:31:00,
2013-04-27 03:36:00,34.7,32.1,30.45,NE,40,0.0,0.0,90,0.00,,,0.00,VWS V14.01,2013-04-27 07:36:00,
2013-04-27 03:41:00,34.6,32.0,30.45,NE,40,0.0,0.0,90,0.00,,,0.00,VWS V14.01,2013-04-27 07:41:00,
2013-04-27 03:46:00,34.6,32.2,30.45,NE,40,0.0,0.0,91,0.00,,,0.00,VWS V14.01,2013-04-27 07:46:00,
2013-04-27 03:51:00,34.6,32.2,30.45,NE,40,0.0,0.0,91,0.00,,,0.00,VWS V14.01,2013-04-27 07:51:00,
2013-04-27 03:56:00,34.6,32.2,30.45,NE,40,0.0,0.0,91,0.00,,,0.00,VWS V14.01,2013-04-27 07:56:00,
2013-04-27 04:01:00,34.6,32.2,30.45,NE,40,0.0,0.0,91,0.00,,,0.00,VWS V14.01,2013-04-27 08:01:00,
2013-04-27 04:06:00,34.4,32.0,30.45,NE,40,0.0,0.0,91,0.00,,,0.00,VWS V14.01,2013-04-27 08:06:00,
2013-04-27 04:11:00,34.2,31.9,30.45,NE,40,0.0,0.0,91,0.00,,,0.00,VWS V14.01,2013-04-27 08:11:00,
2013-04-27 04:16:00,34.1,31.8,30.45,NE,40,0.0,0.0,91,0.00,,,0.00,VWS V14.01,2013-04-27 08:16:00,
2013-04-27 04:21:00,34.0,31.6,30.45,NE,40,0.0,0.0,91,0.00,,,0.00,VWS V14.01,2013-04-27 08:21:00,
2013-04-27 04:26:00,33.9,31.6,30.45,NE,40,0.0,0.0,91,0.00,,,0.00,VWS V14.01,2013-04-27 08:26:00,
2013-04-27 04:31:00,33.9,31.6,30.45,NE,40,0.0,0.0,91,0.00,,,0.00,VWS V14.01,2013-04-27 08:31:00,
2013-04-27 04:36:00,33.8,31.5,30.45,NE,40,0.0,0.0,91,0.00,,,0.00,VWS V14.01,2013-04-27 08:36:00,
2013-04-27 04:41:00,33.7,31.4,30.45,NE,40,0.0,0.0,91,0.00,,,0.00,VWS V14.01,2013-04-27 08:41:00,
2013-04-27 04:46:00,33.5,31.2,30.45,NE,40,0.0,0.0,91,0.00,,,0.00,VWS V14.01,2013-04-27 08:46:00,
2013-04-27 04:51:00,33.5,31.4,30.45,NE,40,0.0,0.0,92,0.00,,,0.00,VWS V14.01,2013-04-27 08:51:00,
2013-04-27 04:56:00,33.4,31.3,30.45,NE,40,0.0,0.0,92,0.00,,,0.00,VWS V14.01,2013-04-27 08:56:00,
2013-04-27 05:01:00,33.4,31.3,30.45,NE,40,0.0,0.0,92,0.00,,,0.00,VWS V14.01,2013-04-27 09:01:00,
2013-04-27 05:06:00,33.3,31.2,30.45,NE,40,0.0,0.0,92,0.00,,,0.00,VWS V14.01,2013-04-27 09:06:00,
2013-04-27 05:11:00,33.4,31.3,30.44,NE,40,0.0,0.0,92,0.00,,,0.00,VWS V14.01,2013-04-27 09:11:00,
2013-04-27 05:16:00,33.3,31.2,30.44,NE,40,0.0,0.0,92,0.00,,,0.00,VWS V14.01,2013-04-27 09:16:00,
2013-04-27 05:21:00,33.2,31.1,30.45,NE,40,0.0,0.0,92,0.00,,,0.00,VWS V14.01,2013-04-27 09:21:00,
2013-04-27 05:26:00,33.1,31.0,30.45,NE,40,0.0,0.0,92,0.00,,,0.00,VWS V14.01,2013-04-27 09:26:00,
2013-04-27 05:31:00,33.1,31.3,30.45,NE,40,0.0,0.0,93,0.00,,,0.00,VWS V14.01,2013-04-27 09:31:00,
2013-04-27 05:36:00,33.1,31.3,30.45,NE,40,0.0,0.0,93,0.00,,,0.00,VWS V14.01,2013-04-27 09:36:00,
2013-04-27 05:41:00,33.1,31.3,30.45,NE,40,0.0,0.0,93,0.00,,,0.00,VWS V14.01,2013-04-27 09:41:00,
2013-04-27 05:46:00,33.1,31.3,30.45,NE,40,0.0,0.0,93,0.00,,,0.00,VWS V14.01,2013-04-27 09:46:00,
2013-04-27 05:51:00,33.0,31.2,30.45,NE,40,0.0,0.0,93,0.00,,,0.00,VWS V14.01,2013-04-27 09:51:00,
2013-04-27 05:56:00,33.0,31.2,30.45,NE,40,0.0,0.0,93,0.00,,,0.00,VWS V14.01,2013-04-27 09:56:00,
2013-04-27 06:01:00,33.0,31.2,30.45,NE,40,0.0,0.0,93,0.00,,,0.00,VWS V14.01,2013-04-27 10:01:00,
2013-04-27 06:06:00,33.0,31.2,30.45,NE,40,0.0,0.0,93,0.00,,,0.00,VWS V14.01,2013-04-27 10:06:00,
2013-04-27 06:11:00,33.0,31.2,30.45,NE,40,0.0,0.0,93,0.00,,,0.00,VWS V14.01,2013-04-27 10:11:00,
2013-04-27 06:16:00,32.9,31.1,30.45,NE,40,0.0,0.0,93,0.00,,,0.00,VWS V14.01,2013-04-27 10:16:00,
2013-04-27 06:21:00,32.9,31.1,30.45,NE,40,0.0,0.0,93,0.00,,,0.00,VWS V14.01,2013-04-27 10:21:00,
2013-04-27 06:26:00,32.7,30.9,30.46,NE,40,0.0,0.0,93,0.00,,,0.00,VWS V14.01,2013-04-27 10:26:00,
2013-04-27 06:31:00,32.6,30.8,30.46,NE,40,0.0,0.0,93,0.00,,,0.00,VWS V14.01,2013-04-27 10:31:00,
2013-04-27 06:36:00,32.6,30.8,30.46,NE,40,0.0,0.0,93,0.00,,,0.00,VWS V14.01,2013-04-27 10:36:00,
2013-04-27 06:41:00,32.5,30.7,30.46,NE,40,0.0,0.0,93,0.00,,,0.00,VWS V14.01,2013-04-27 10:41:00,
2013-04-27 06:46:00,32.5,30.7,30.46,NE,40,0.0,0.0,93,0.00,,,0.00,VWS V14.01,2013-04-27 10:46:00,
2013-04-27 06:51:00,32.6,30.8,30.46,NE,40,0.0,0.0,93,0.00,,,0.00,VWS V14.01,2013-04-27 10:51:00,
2013-04-27 06:56:00,32.6,30.8,30.46,NE,40,0.0,0.0,93,0.00,,,0.00,VWS V14.01,2013-04-27 10:56:00,
2013-04-27 07:01:00,32.6,30.8,30.46,NE,40,0.0,0.0,93,0.00,,,0.00,VWS V14.01,2013-04-27 11:01:00,
2013-04-27 07:06:00,32.8,31.0,30.46,NE,40,0.0,0.0,93,0.00,,,0.00,VWS V14.01,2013-04-27 11:06:00,
2013-04-27 07:11:00,33.0,31.2,30.46,NE,40,0.0,0.0,93,0.00,,,0.00,VWS V14.01,2013-04-27 11:11:00,
2013-04-27 07:16:00,33.1,31.6,30.46,NE,40,0.0,0.0,94,0.00,,,0.00,VWS V14.01,2013-04-27 11:16:00,
2013-04-27 07:21:00,33.2,31.7,30.46,NE,40,0.0,0.0,94,0.00,,,0.00,VWS V14.01,2013-04-27 11:21:00,
2013-04-27 07:26:00,33.3,31.8,30.46,NE,40,0.0,0.0,94,0.00,,,0.00,VWS V14.01,2013-04-27 11:26:00,
2013-04-27 07:31:00,33.4,31.9,30.47,NE,40,0.0,0.0,94,0.00,,,0.00,VWS V14.01,2013-04-27 11:31:00,
2013-04-27 07:36:00,33.7,32.2,30.47,NE,40,0.0,0.0,94,0.00,,,0.00,VWS V14.01,2013-04-27 11:36:00,
2013-04-27 07:41:00,34.2,32.7,30.47,NE,40,0.0,0.0,94,0.00,,,0.00,VWS V14.01,2013-04-27 11:41:00,
2013-04-27 07:46:00,34.6,33.0,30.46,NE,40,0.0,0.0,94,0.00,,,0.00,VWS V14.01,2013-04-27 11:46:00,
2013-04-27 07:51:00,35.0,33.2,30.46,NE,40,0.0,1.0,93,0.00,,,0.00,VWS V14.01,2013-04-27 11:51:00,
2013-04-27 07:56:00,35.3,33.5,30.46,NE,40,0.0,0.0,93,0.00,,,0.00,VWS V14.01,2013-04-27 11:56:00,
2013-04-27 08:01:00,35.6,33.5,30.46,NE,40,0.0,0.0,92,0.00,,,0.00,VWS V14.01,2013-04-27 12:01:00,
2013-04-27 08:06:00,36.0,33.9,30.46,NE,40,0.0,0.0,92,0.00,,,0.00,VWS V14.01,2013-04-27 12:06:00,
2013-04-27 08:11:00,36.4,34.0,30.46,NE,40,0.0,0.0,91,0.00,,,0.00,VWS V14.01,2013-04-27 12:11:00,
2013-04-27 08:16:00,36.6,34.0,30.47,NE,40,0.0,0.0,90,0.00,,,0.00,VWS V14.01,2013-04-27 12:16:00,
2013-04-27 08:21:00,37.0,34.1,30.47,NE,40,0.0,1.0,89,0.00,,,0.00,VWS V14.01,2013-04-27 12:21:00,
2013-04-27 08:26:00,37.5,34.6,30.47,NE,40,0.0,0.0,89,0.00,,,0.00,VWS V14.01,2013-04-27 12:26:00,
2013-04-27 08:31:00,38.1,34.9,30.47,NE,40,0.0,0.0,88,0.00,,,0.00,VWS V14.01,2013-04-27 12:31:00,
2013-04-27 08:36:00,38.8,35.3,30.47,NE,40,0.0,0.0,87,0.00,,,0.00,VWS V14.01,2013-04-27 12:36:00,
2013-04-27 08:41:00,39.6,35.5,30.47,NE,40,0.0,0.0,85,0.00,,,0.00,VWS V14.01,2013-04-27 12:41:00,
2013-04-27 08:46:00,40.4,35.3,30.47,NE,40,0.0,0.0,82,0.00,,,0.00,VWS V14.01,2013-04-27 12:46:00,
2013-04-27 08:51:00,41.1,36.6,30.47,NE,40,0.0,1.0,84,0.00,,,0.00,VWS V14.01,2013-04-27 12:51:00,
2013-04-27 08:56:00,41.8,35.5,30.47,NE,40,0.0,1.0,78,0.00,,,0.00,VWS V14.01,2013-04-27 12:56:00,
2013-04-27 09:01:00,42.2,35.8,30.47,NE,40,1.0,2.0,78,0.00,,,0.00,VWS V14.01,2013-04-27 13:01:00,
2013-04-27 09:06:00,42.5,36.1,30.47,NE,40,0.0,1.0,78,0.00,,,0.00,VWS V14.01,2013-04-27 13:06:00,
2013-04-27 09:11:00,42.7,35.7,30.47,NE,40,0.0,1.0,76,0.00,,,0.00,VWS V14.01,2013-04-27 13:11:00,
2013-04-27 09:16:00,43.0,36.0,30.47,NE,40,0.0,0.0,76,0.00,,,0.00,VWS V14.01,2013-04-27 13:16:00,
2013-04-27 09:21:00,43.4,36.0,30.46,NE,40,0.0,2.0,75,0.00,,,0.00,VWS V14.01,2013-04-27 13:21:00,
2013-04-27 09:26:00,43.9,36.2,30.46,NNW,348,0.0,1.0,74,0.00,,,0.00,VWS V14.01,2013-04-27 13:26:00,
2013-04-27 09:31:00,44.5,36.7,30.46,NW,325,0.0,3.0,74,0.00,,,0.00,VWS V14.01,2013-04-27 13:31:00,
2013-04-27 09:36:00,45.0,36.5,30.46,NNW,329,0.0,2.0,72,0.00,,,0.00,VWS V14.01,2013-04-27 13:36:00,
2013-04-27 09:41:00,45.6,37.1,30.46,NNW,332,0.0,3.0,72,0.00,,,0.00,VWS V14.01,2013-04-27 13:41:00,
2013-04-27 09:48:00,46.9,36.2,30.45,NNW,333,2.0,3.0,66,0.00,,,0.00,VWS V14.01,2013-04-27 13:48:00,
2013-04-27 09:53:00,47.3,35.4,30.45,NE,52,1.0,5.0,63,0.00,,,0.00,VWS V14.01,2013-04-27 13:53:00,
2013-04-27 09:58:00,47.8,34.6,30.45,North,360,0.0,1.0,60,0.00,,,0.00,VWS V14.01,2013-04-27 13:58:00,
2013-04-27 10:03:00,48.1,34.5,30.45,North,5,0.0,3.0,59,0.00,,,0.00,VWS V14.01,2013-04-27 14:03:00,
2013-04-27 10:08:00,48.7,34.2,30.45,East,87,0.0,1.0,57,0.00,,,0.00,VWS V14.01,2013-04-27 14:08:00,
2013-04-27 10:13:00,48.8,32.9,30.45,North,10,3.0,4.0,54,0.00,,,0.00,VWS V14.01,2013-04-27 14:13:00,
2013-04-27 10:18:00,48.9,33.5,30.45,NW,312,0.0,7.0,55,0.00,,,0.00,VWS V14.01,2013-04-27 14:18:00,
2013-04-27 10:23:00,49.2,32.8,30.45,North,355,0.0,7.0,53,0.00,,,0.00,VWS V14.01,2013-04-27 14:23:00,
2013-04-27 10:28:00,49.4,32.0,30.45,North,355,0.0,2.0,51,0.00,,,0.00,VWS V14.01,2013-04-27 14:28:00,
2013-04-27 10:33:00,49.7,31.3,30.45,North,360,2.0,4.0,49,0.00,,,0.00,VWS V14.01,2013-04-27 14:33:00,
2013-04-27 10:38:00,49.7,30.3,30.45,North,355,2.0,4.0,47,0.00,,,0.00,VWS V14.01,2013-04-27 14:38:00,
2013-04-27 10:43:00,49.6,31.2,30.45,NNW,328,0.0,4.0,49,0.00,,,0.00,VWS V14.01,2013-04-27 14:43:00,
2013-04-27 10:48:00,50.1,31.2,30.45,NNW,338,0.0,3.0,48,0.00,,,0.00,VWS V14.01,2013-04-27 14:48:00,
2013-04-27 10:53:00,50.6,31.1,30.44,NNW,338,0.0,3.0,47,0.00,,,0.00,VWS V14.01,2013-04-27 14:53:00,
2013-04-27 10:58:00,50.8,30.8,30.45,South,190,1.0,4.0,46,0.00,,,0.00,VWS V14.01,2013-04-27 14:58:00,
2013-04-27 11:03:00,50.6,31.1,30.44,NW,306,0.0,4.0,47,0.00,,,0.00,VWS V14.01,2013-04-27 15:03:00,
2013-04-27 11:08:00,51.4,31.3,30.44,NW,313,0.0,3.0,46,0.00,,,0.00,VWS V14.01,2013-04-27 15:08:00,
2013-04-27 11:13:00,51.2,32.2,30.44,ENE,58,2.0,7.0,48,0.00,,,0.00,VWS V14.01,2013-04-27 15:13:00,
2013-04-27 11:18:00,51.6,32.0,30.44,NE,42,0.0,1.0,47,0.00,,,0.00,VWS V14.01,2013-04-27 15:18:00,
2013-04-27 11:23:00,51.9,31.8,30.44,NNW,329,0.0,3.0,46,0.00,,,0.00,VWS V14.01,2013-04-27 15:23:00,
2013-04-27 11:28:00,52.2,31.5,30.44,SW,232,0.0,3.0,45,0.00,,,0.00,VWS V14.01,2013-04-27 15:28:00,
2013-04-27 11:33:00,52.3,30.5,30.44,ESE,117,0.0,4.0,43,0.00,,,0.00,VWS V14.01,2013-04-27 15:33:00,
2013-04-27 11:38:00,52.5,30.7,30.44,North,350,0.0,7.0,43,0.00,,,0.00,VWS V14.01,2013-04-27 15:38:00,
2013-04-27 11:43:00,51.9,29.5,30.43,ESE,105,4.0,7.0,42,0.00,,,0.00,VWS V14.01,2013-04-27 15:43:00,
2013-04-27 11:48:00,52.3,30.5,30.43,NNW,342,4.0,6.0,43,0.00,,,0.00,VWS V14.01,2013-04-27 15:48:00,
2013-04-27 11:53:00,52.6,30.8,30.43,NW,310,4.0,6.0,43,0.00,,,0.00,VWS V14.01,2013-04-27 15:53:00,
2013-04-27 11:58:00,53.1,30.0,30.43,NW,320,0.0,3.0,41,0.00,,,0.00,VWS V14.01,2013-04-27 15:58:00,
2013-04-27 12:03:00,53.3,30.2,30.43,SW,231,3.0,7.0,41,0.00,,,0.00,VWS V14.01,2013-04-27 16:03:00,
2013-04-27 12:08:00,53.4,29.7,30.42,South,188,0.0,5.0,40,0.00,,,0.00,VWS V14.01,2013-04-27 16:08:00,
2013-04-27 12:13:00,54.3,29.2,30.42,East,90,2.0,5.0,38,0.00,,,0.00,VWS V14.01,2013-04-27 16:13:00,
2013-04-27 12:18:00,54.9,32.3,30.42,East,90,0.0,4.0,42,0.00,,,0.00,VWS V14.01,2013-04-27 16:18:00,
2013-04-27 12:23:00,55.0,30.5,30.41,North,11,0.0,6.0,39,0.00,,,0.00,VWS V14.01,2013-04-27 16:23:00,
2013-04-27 12:28:00,55.3,32.0,30.41,East,98,5.0,5.0,41,0.00,,,0.00,VWS V14.01,2013-04-27 16:28:00,
2013-04-27 12:33:00,55.6,28.4,30.41,East,84,3.0,5.0,35,0.00,,,0.00,VWS V14.01,2013-04-27 16:33:00,
2013-04-27 12:38:00,55.4,28.9,30.41,NE,43,0.0,3.0,36,0.00,,,0.00,VWS V14.01,2013-04-27 16:38:00,
2013-04-27 12:43:00,55.3,29.5,30.41,ESE,121,0.0,6.0,37,0.00,,,0.00,VWS V14.01,2013-04-27 16:43:00,
2013-04-27 12:48:00,54.8,29.0,30.41,NNE,14,4.0,8.0,37,0.00,,,0.00,VWS V14.01,2013-04-27 16:48:00,
2013-04-27 12:53:00,54.9,29.1,30.41,ENE,73,2.0,8.0,37,0.00,,,0.00,VWS V14.01,2013-04-27 16:53:00,
2013-04-27 12:58:00,54.9,28.5,30.40,SE,133,0.0,5.0,36,0.00,,,0.00,VWS V14.01,2013-04-27 16:58:00,
2013-04-27 13:03:00,55.5,29.7,30.40,NNW,336,0.0,5.0,37,0.00,,,0.00,VWS V14.01,2013-04-27 17:03:00,
2013-04-27 13:08:00,55.9,28.0,30.40,North,9,0.0,3.0,34,0.00,,,0.00,VWS V14.01,2013-04-27 17:08:00,
2013-04-27 13:13:00,55.5,27.6,30.40,NNE,22,0.0,4.0,34,0.00,,,0.00,VWS V14.01,2013-04-27 17:13:00,
2013-04-27 13:18:00,56.0,30.8,30.39,NNW,341,0.0,2.0,38,0.00,,,0.00,VWS V14.01,2013-04-27 17:18:00,
2013-04-27 13:23:00,56.3,30.4,30.40,NNW,342,6.0,8.0,37,0.00,,,0.00,VWS V14.01,2013-04-27 17:23:00,
2013-04-27 13:28:00,55.6,26.2,30.39,NW,310,3.0,6.0,32,0.00,,,0.00,VWS V14.01,2013-04-27 17:28:00,
2013-04-27 13:33:00,55.6,27.7,30.39,North,5,4.0,6.0,34,0.00,,,0.00,VWS V14.01,2013-04-27 17:33:00,
2013-04-27 13:38:00,55.3,27.4,30.39,North,5,0.0,1.0,34,0.00,,,0.00,VWS V14.01,2013-04-27 17:38:00,
2013-04-27 13:43:00,55.5,28.3,30.39,NNW,345,7.0,7.0,35,0.00,,,0.00,VWS V14.01,2013-04-27 17:43:00,
2013-04-27 13:48:00,54.9,28.5,30.39,North,360,0.0,7.0,36,0.00,,,0.00,VWS V14.01,2013-04-27 17:48:00,
2013-04-27 13:53:00,55.6,29.1,30.39,SW,217,2.0,7.0,36,0.00,,,0.00,VWS V14.01,2013-04-27 17:53:00,
2013-04-27 13:58:00,56.3,29.0,30.39,NW,306,2.0,2.0,35,0.00,,,0.00,VWS V14.01,2013-04-27 17:58:00,
2013-04-27 14:03:00,56.9,29.5,30.38,ENE,69,0.0,6.0,35,0.00,,,0.00,VWS V14.01,2013-04-27 18:03:00,
2013-04-27 14:08:00,57.6,28.0,30.38,SSW,202,2.0,6.0,32,0.00,,,0.00,VWS V14.01,2013-04-27 18:08:00,
2013-04-27 14:13:00,57.2,28.4,30.38,East,84,1.0,8.0,33,0.00,,,0.00,VWS V14.01,2013-04-27 18:13:00,
2013-04-27 14:18:00,58.1,27.6,30.38,NNW,331,4.0,6.0,31,0.00,,,0.00,VWS V14.01,2013-04-27 18:18:00,
2013-04-27 14:23:00,57.8,26.6,30.38,WNW,290,0.0,8.0,30,0.00,,,0.00,VWS V14.01,2013-04-27 18:23:00,
2013-04-27 14:28:00,58.5,28.8,30.38,NW,325,1.0,7.0,32,0.00,,,0.00,VWS V14.01,2013-04-27 18:28:00,
2013-04-27 14:33:00,58.3,27.8,30.37,WNW,298,3.0,7.0,31,0.00,,,0.00,VWS V14.01,2013-04-27 18:33:00,
2013-04-27 14:38:00,58.1,27.6,30.37,West,273,4.0,9.0,31,0.00,,,0.00,VWS V14.01,2013-04-27 18:38:00,
2013-04-27 14:43:00,58.1,29.2,30.37,WNW,284,1.0,9.0,33,0.00,,,0.00,VWS V14.01,2013-04-27 18:43:00,
2013-04-27 14:48:00,58.1,27.6,30.37,WNW,290,3.0,7.0,31,0.00,,,0.00,VWS V14.01,2013-04-27 18:48:00,
2013-04-27 14:53:00,57.7,27.3,30.37,NW,306,1.0,8.0,31,0.00,,,0.00,VWS V14.01,2013-04-27 18:53:00,
2013-04-27 14:58:00,58.1,28.4,30.36,NNW,336,0.0,6.0,32,0.00,,,0.00,VWS V14.01,2013-04-27 18:58:00,
2013-04-27 15:03:00,58.2,27.7,30.36,NW,315,6.0,8.0,31,0.00,,,0.00,VWS V14.01,2013-04-27 19:03:00,
2013-04-27 15:08:00,57.7,28.1,30.36,NNW,332,2.0,7.0,32,0.00,,,0.00,VWS V14.01,2013-04-27 19:08:00,
2013-04-27 15:13:00,57.2,26.1,30.36,North,349,2.0,9.0,30,0.00,,,0.00,VWS V14.01,2013-04-27 19:13:00,
2013-04-27 15:18:00,57.5,28.6,30.36,West,281,3.0,6.0,33,0.00,,,0.00,VWS V14.01,2013-04-27 19:18:00,
2013-04-27 15:23:00,58.2,27.7,30.36,NW,310,0.0,9.0,31,0.00,,,0.00,VWS V14.01,2013-04-27 19:23:00,
2013-04-27 15:28:00,57.8,25.8,30.36,West,265,4.0,6.0,29,0.00,,,0.00,VWS V14.01,2013-04-27 19:28:00,
2013-04-27 15:33:00,57.3,27.0,30.36,NW,317,2.0,6.0,31,0.00,,,0.00,VWS V14.01,2013-04-27 19:33:00,
2013-04-27 15:38:00,57.5,27.1,30.35,WNW,300,0.0,4.0,31,0.00,,,0.00,VWS V14.01,2013-04-27 19:38:00,
2013-04-27 15:43:00,57.7,26.5,30.35,NNW,336,5.0,8.0,30,0.00,,,0.00,VWS V14.01,2013-04-27 19:43:00,
2013-04-27 15:48:00,57.6,26.4,30.35,NNW,336,4.0,10.0,30,0.00,,,0.00,VWS V14.01,2013-04-27 19:48:00,
2013-04-27 15:53:00,57.7,25.7,30.34,NW,315,1.0,10.0,29,0.00,,,0.00,VWS V14.01,2013-04-27 19:53:00,
2013-04-27 15:58:00,57.9,23.2,30.34,NNW,328,0.0,7.0,26,0.00,,,0.00,VWS V14.01,2013-04-27 19:58:00,
2013-04-27 16:03:00,58.6,23.8,30.34,WSW,244,0.0,7.0,26,0.00,,,0.00,VWS V14.01,2013-04-27 20:03:00,
2013-04-27 16:08:00,59.1,23.3,30.34,West,281,2.0,5.0,25,0.00,,,0.00,VWS V14.01,2013-04-27 20:08:00,
2013-04-27 16:13:00,58.3,23.6,30.34,NW,321,0.0,8.0,26,0.00,,,0.00,VWS V14.01,2013-04-27 20:13:00,
2013-04-27 16:18:00,58.0,24.2,30.34,WSW,258,0.0,8.0,27,0.00,,,0.00,VWS V14.01,2013-04-27 20:18:00,
2013-04-27 16:23:00,58.1,24.3,30.34,SW,233,1.0,8.0,27,0.00,,,0.00,VWS V14.01,2013-04-27 20:23:00,
2013-04-27 16:28:00,58.5,21.9,30.34,SW,217,0.0,5.0,24,0.00,,,0.00,VWS V14.01,2013-04-27 20:28:00,
2013-04-27 16:33:00,57.8,23.2,30.34,NW,306,0.0,7.0,26,0.00,,,0.00,VWS V14.01,2013-04-27 20:33:00,
2013-04-27 16:38:00,57.8,23.2,30.34,SW,217,0.0,5.0,26,0.00,,,0.00,VWS V14.01,2013-04-27 20:38:00,
2013-04-27 16:43:00,58.2,22.6,30.34,SSW,205,1.0,6.0,25,0.00,,,0.00,VWS V14.01,2013-04-27 20:43:00,
2013-04-27 16:48:00,58.1,23.4,30.33,North,360,0.0,4.0,26,0.00,,,0.00,VWS V14.01,2013-04-27 20:48:00,
2013-04-27 16:53:00,58.2,25.3,30.33,NW,305,1.0,5.0,28,0.00,,,0.00,VWS V14.01,2013-04-27 20:53:00,
2013-04-27 16:58:00,58.5,23.8,30.33,WNW,302,4.0,6.0,26,0.00,,,0.00,VWS V14.01,2013-04-27 20:58:00,
2013-04-27 17:03:00,58.1,24.3,30.33,WNW,290,0.0,8.0,27,0.00,,,0.00,VWS V14.01,2013-04-27 21:03:00,
2013-04-27 17:08:00,58.3,24.5,30.33,WNW,298,0.0,6.0,27,0.00,,,0.00,VWS V14.01,2013-04-27 21:08:00,
2013-04-27 17:13:00,58.6,25.6,30.33,NW,324,2.0,6.0,28,0.00,,,0.00,VWS V14.01,2013-04-27 21:13:00,
2013-04-27 17:18:00,58.9,25.9,30.33,NNW,329,1.0,4.0,28,0.00,,,0.00,VWS V14.01,2013-04-27 21:18:00,
2013-04-27 17:23:00,58.9,25.9,30.33,WNW,294,2.0,4.0,28,0.00,,,0.00,VWS V14.01,2013-04-27 21:23:00,
2013-04-27 17:28:00,58.9,26.7,30.33,North,351,2.0,10.0,29,0.00,,,0.00,VWS V14.01,2013-04-27 21:28:00,
2013-04-27 17:33:00,58.7,26.5,30.33,NNW,342,4.0,10.0,29,0.00,,,0.00,VWS V14.01,2013-04-27 21:33:00,
2013-04-27 17:38:00,58.4,25.5,30.33,NW,315,2.0,3.0,28,0.00,,,0.00,VWS V14.01,2013-04-27 21:38:00,
2013-04-27 17:43:00,58.8,26.6,30.32,North,355,3.0,4.0,29,0.00,,,0.00,VWS V14.01,2013-04-27 21:43:00,
2013-04-27 17:48:00,58.5,25.5,30.32,North,360,0.0,6.0,28,0.00,,,0.00,VWS V14.01,2013-04-27 21:48:00,
2013-04-27 17:53:00,58.7,25.7,30.32,WNW,296,2.0,6.0,28,0.00,,,0.00,VWS V14.01,2013-04-27 21:53:00,
2013-04-27 17:58:00,58.7,25.7,30.32,WNW,300,2.0,4.0,28,0.00,,,0.00,VWS V14.01,2013-04-27 21:58:00,
2013-04-27 18:03:00,58.7,25.7,30.32,NW,320,2.0,4.0,28,0.00,,,0.00,VWS V14.01,2013-04-27 22:03:00,
2013-04-27 18:08:00,58.4,24.6,30.32,WNW,290,0.0,5.0,27,0.00,,,0.00,VWS V14.01,2013-04-27 22:08:00,
2013-04-27 18:13:00,58.3,23.6,30.32,WNW,298,1.0,6.0,26,0.00,,,0.00,VWS V14.01,2013-04-27 22:13:00,
2013-04-27 18:18:00,57.9,23.2,30.32,WNW,298,0.0,3.0,26,0.00,,,0.00,VWS V14.01,2013-04-27 22:18:00,
2013-04-27 18:23:00,58.1,24.3,30.32,NW,323,1.0,5.0,27,0.00,,,0.00,VWS V14.01,2013-04-27 22:23:00,
2013-04-27 18:28:00,58.0,23.3,30.33,NNW,348,2.0,5.0,26,0.00,,,0.00,VWS V14.01,2013-04-27 22:28:00,
2013-04-27 18:33:00,58.0,24.2,30.33,NNW,333,0.0,5.0,27,0.00,,,0.00,VWS V14.01,2013-04-27 22:33:00,
2013-04-27 18:38:00,58.2,24.4,30.33,NNW,347,0.0,4.0,27,0.00,,,0.00,VWS V14.01,2013-04-27 22:38:00,
2013-04-27 18:43:00,58.1,25.2,30.33,WNW,294,1.0,4.0,28,0.00,,,0.00,VWS V14.01,2013-04-27 22:43:00,
2013-04-27 18:48:00,57.8,26.6,30.33,WNW,298,0.0,3.0,30,0.00,,,0.00,VWS V14.01,2013-04-27 22:48:00,
2013-04-27 18:53:00,57.6,25.6,30.33,NNW,343,0.0,5.0,29,0.00,,,0.00,VWS V14.01,2013-04-27 22:53:00,
2013-04-27 18:58:00,57.4,26.2,30.33,WNW,300,0.0,6.0,30,0.00,,,0.00,VWS V14.01,2013-04-27 22:58:00,
2013-04-27 19:03:00,57.1,26.0,30.32,WNW,301,2.0,6.0,30,0.00,,,0.00,VWS V14.01,2013-04-27 23:03:00,
2013-04-27 19:08:00,56.8,26.5,30.32,NNW,331,0.0,3.0,31,0.00,,,0.00,VWS V14.01,2013-04-27 23:08:00,
2013-04-27 19:13:00,56.5,25.5,30.32,NNW,331,1.0,3.0,30,0.00,,,0.00,VWS V14.01,2013-04-27 23:13:00,
2013-04-27 19:18:00,56.3,29.0,30.32,North,349,0.0,3.0,35,0.00,,,0.00,VWS V14.01,2013-04-27 23:18:00,
2013-04-27 19:23:00,55.6,27.7,30.32,North,349,0.0,3.0,34,0.00,,,0.00,VWS V14.01,2013-04-27 23:23:00,
2013-04-27 19:28:00,54.8,25.5,30.33,North,349,0.0,0.0,32,0.00,,,0.00,VWS V14.01,2013-04-27 23:28:00,
2013-04-27 19:33:00,54.3,25.1,30.33,North,349,0.0,0.0,32,0.00,,,0.00,VWS V14.01,2013-04-27 23:33:00,
2013-04-27 19:38:00,53.7,24.6,30.33,North,349,0.0,1.0,32,0.00,,,0.00,VWS V14.01,2013-04-27 23:38:00,
2013-04-27 19:43:00,53.0,24.0,30.32,North,349,0.0,1.0,32,0.00,,,0.00,VWS V14.01,2013-04-27 23:43:00,
2013-04-27 19:48:00,52.3,24.1,30.33,North,349,0.0,1.0,33,0.00,,,0.00,VWS V14.01,2013-04-27 23:48:00,
2013-04-27 19:53:00,51.8,23.6,30.32,North,349,0.0,1.0,33,0.00,,,0.00,VWS V14.01,2013-04-27 23:53:00,
2013-04-27 19:58:00,51.6,23.5,30.32,North,349,0.0,1.0,33,0.00,,,0.00,VWS V14.01,2013-04-27 23:58:00,
2013-04-27 20:03:00,51.5,23.4,30.32,North,349,0.0,1.0,33,0.00,,,0.00,VWS V14.01,2013-04-28 00:03:00,
2013-04-27 20:07:00,51.3,23.2,30.32,North,349,0.0,0.0,33,0.00,,,0.00,VWS V14.01,2013-04-28 00:07:00,
2013-04-27 20:12:00,51.3,23.2,30.32,North,349,0.0,0.0,33,0.00,,,0.00,VWS V14.01,2013-04-28 00:12:00,
2013-04-27 20:17:00,51.2,23.1,30.32,North,349,0.0,1.0,33,0.00,,,0.00,VWS V14.01,2013-04-28 00:17:00,
2013-04-27 20:22:00,51.1,23.0,30.32,North,349,0.0,1.0,33,0.00,,,0.00,VWS V14.01,2013-04-28 00:22:00,
2013-04-27 20:27:00,51.1,23.0,30.32,North,349,0.0,0.0,33,0.00,,,0.00,VWS V14.01,2013-04-28 00:27:00,
2013-04-27 20:32:00,51.0,24.3,30.32,North,349,0.0,1.0,35,0.00,,,0.00,VWS V14.01,2013-04-28 00:32:00,
2013-04-27 20:37:00,50.6,24.0,30.33,North,349,0.0,0.0,35,0.00,,,0.00,VWS V14.01,2013-04-28 00:37:00,
2013-04-27 20:42:00,50.2,23.6,30.33,North,349,0.0,0.0,35,0.00,,,0.00,VWS V14.01,2013-04-28 00:42:00,
2013-04-27 20:47:00,50.0,22.8,30.33,North,349,0.0,0.0,34,0.00,,,0.00,VWS V14.01,2013-04-28 00:47:00,
2013-04-27 20:52:00,50.0,23.4,30.33,North,349,0.0,0.0,35,0.00,,,0.00,VWS V14.01,2013-04-28 00:52:00,
2013-04-27 20:57:00,49.9,24.0,30.33,North,349,0.0,0.0,36,0.00,,,0.00,VWS V14.01,2013-04-28 00:57:00,
2013-04-27 21:02:00,49.8,23.9,30.33,North,349,0.0,0.0,36,0.00,,,0.00,VWS V14.01,2013-04-28 01:02:00,
2013-04-27 21:07:00,49.4,24.2,30.33,North,349,0.0,1.0,37,0.00,,,0.00,VWS V14.01,2013-04-28 01:07:00,
2013-04-27 21:12:00,49.0,23.2,30.33,WNW,288,0.0,1.0,36,0.00,,,0.00,VWS V14.01,2013-04-28 01:12:00,
2013-04-27 21:17:00,49.0,23.2,30.33,WNW,288,0.0,1.0,36,0.00,,,0.00,VWS V14.01,2013-04-28 01:17:00,
2013-04-27 21:22:00,49.0,23.9,30.33,WNW,288,0.0,1.0,37,0.00,,,0.00,VWS V14.01,2013-04-28 01:22:00,
2013-04-27 21:27:00,48.7,27.2,30.33,WNW,288,0.0,1.0,43,0.00,,,0.00,VWS V14.01,2013-04-28 01:27:00,
2013-04-27 21:32:00,48.1,24.9,30.33,WNW,288,0.0,1.0,40,0.00,,,0.00,VWS V14.01,2013-04-28 01:32:00,
2013-04-27 21:37:00,47.7,24.0,30.33,WNW,288,0.0,0.0,39,0.00,,,0.00,VWS V14.01,2013-04-28 01:37:00,
2013-04-27 21:42:00,47.5,24.4,30.33,WNW,288,0.0,1.0,40,0.00,,,0.00,VWS V14.01,2013-04-28 01:42:00,
2013-04-27 21:47:00,47.8,25.3,30.33,WNW,288,0.0,0.0,41,0.00,,,0.00,VWS V14.01,2013-04-28 01:47:00,
2013-04-27 21:52:00,48.4,25.8,30.33,WNW,288,0.0,0.0,41,0.00,,,0.00,VWS V14.01,2013-04-28 01:52:00,
2013-04-27 21:57:00,48.8,25.6,30.33,WNW,288,0.0,0.0,40,0.00,,,0.00,VWS V14.01,2013-04-28 01:57:00,
2013-04-27 22:02:00,48.5,26.5,30.33,WNW,288,0.0,0.0,42,0.00,,,0.00,VWS V14.01,2013-04-28 02:02:00,
2013-04-27 22:07:00,47.6,26.8,30.33,WNW,288,0.0,0.0,44,0.00,,,0.00,VWS V14.01,2013-04-28 02:07:00,
2013-04-27 22:12:00,47.0,27.3,30.33,WNW,288,0.0,0.0,46,0.00,,,0.00,VWS V14.01,2013-04-28 02:12:00,
2013-04-27 22:17:00,46.5,28.4,30.33,WNW,288,0.0,0.0,49,0.00,,,0.00,VWS V14.01,2013-04-28 02:17:00,
2013-04-27 22:22:00,46.1,27.0,30.33,WNW,288,0.0,0.0,47,0.00,,,0.00,VWS V14.01,2013-04-28 02:22:00,
2013-04-27 22:27:00,45.9,27.3,30.33,WNW,288,0.0,0.0,48,0.00,,,0.00,VWS V14.01,2013-04-28 02:27:00,
2013-04-27 22:32:00,45.7,27.6,30.33,WNW,288,0.0,0.0,49,0.00,,,0.00,VWS V14.01,2013-04-28 02:32:00,
2013-04-27 22:37:00,45.3,27.8,30.34,WNW,288,0.0,0.0,50,0.00,,,0.00,VWS V14.01,2013-04-28 02:37:00,
2013-04-27 22:42:00,45.0,28.0,30.33,WNW,288,0.0,1.0,51,0.00,,,0.00,VWS V14.01,2013-04-28 02:42:00,
2013-04-27 22:47:00,44.6,28.1,30.33,WNW,288,0.0,0.0,52,0.00,,,0.00,VWS V14.01,2013-04-28 02:47:00,
2013-04-27 22:52:00,44.4,26.9,30.33,WNW,288,0.0,0.0,50,0.00,,,0.00,VWS V14.01,2013-04-28 02:52:00,
2013-04-27 22:57:00,44.2,26.8,30.33,WNW,288,0.0,0.0,50,0.00,,,0.00,VWS V14.01,2013-04-28 02:57:00,
2013-04-27 23:02:00,44.1,26.7,30.33,WNW,288,0.0,0.0,50,0.00,,,0.00,VWS V14.01,2013-04-28 03:02:00,
2013-04-27 23:07:00,44.1,26.7,30.34,WNW,288,0.0,0.0,50,0.00,,,0.00,VWS V14.01,2013-04-28 03:07:00,
2013-04-27 23:12:00,44.1,26.2,30.34,WNW,288,0.0,0.0,49,0.00,,,0.00,VWS V14.01,2013-04-28 03:12:00,
2013-04-27 23:17:00,44.1,26.7,30.34,WNW,288,0.0,0.0,50,0.00,,,0.00,VWS V14.01,2013-04-28 03:17:00,
2013-04-27 23:22:00,44.1,26.2,30.34,WNW,288,0.0,0.0,49,0.00,,,0.00,VWS V14.01,2013-04-28 03:22:00,
2013-04-27 23:27:00,44.2,26.3,30.34,WNW,288,0.0,0.0,49,0.00,,,0.00,VWS V14.01,2013-04-28 03:27:00,
2013-04-27 23:32:00,44.0,28.0,30.34,WNW,288,0.0,0.0,53,0.00,,,0.00,VWS V14.01,2013-04-28 03:32:00,
2013-04-27 23:37:00,43.8,26.4,30.34,WNW,288,0.0,0.0,50,0.00,,,0.00,VWS V14.01,2013-04-28 03:37:00,
2013-04-27 23:42:00,43.6,25.7,30.34,WNW,288,0.0,0.0,49,0.00,,,0.00,VWS V14.01,2013-04-28 03:42:00,
2013-04-27 23:47:00,43.5,25.6,30.34,WNW,288,0.0,0.0,49,0.00,,,0.00,VWS V14.01,2013-04-28 03:47:00,
2013-04-27 23:52:00,43.4,26.0,30.34,WNW,288,0.0,0.0,50,0.00,,,0.00,VWS V14.01,2013-04-28 03:52:00,
2013-04-27 23:57:00,43.2,26.3,30.34,WNW,288,0.0,1.0,51,0.00,,,0.00,VWS V14.01,2013-04-28 03:57:00,